Dosis diarias (en J/m2) de radiaci�n solar incidente en superficie.
Lugar de muestreo: Estaci�n de Fotobiolog�a Playa Uni�n (EFPU) en Playa Uni�n, Chubut, Argentina (-43.311263, -65.040969).
Datos aportados al Sistema Nacional de Datos del Mar.
Fecha,Dosis PAR,DosisUV-A,DosisUV-B
2000-01-01,12360715.3,1676358.4,56662.8
2000-01-02,12975535.8,1724401.8,57910.9
2000-01-03,7795297.7,1105226.3,37900.2
2000-01-04,11242348.3,1538026.9,52609.6
2000-01-05,13079709.5,1743901.5,56496.8
2000-01-06,12385679.2,1672003.4,54976.8
2000-01-07,10319797.0,1450332.7,47657.6
2000-01-08,12913311.3,1718671.4,55224.6
2000-01-09,12378236.1,1662817.6,54007.2
2000-01-10,10067358.2,1401428.6,46064.3
2000-01-11,12350547.2,1660158.9,54279.3
2000-01-12,6249762.0,911505.8,30624.5
2000-01-13,12255504.3,1651703.1,54016.4
2000-01-14,9148555.9,1243160.3,40991.2
2000-01-15,8870712.5,1201077.6,39350.3
2000-01-16,12426464.8,1672186.1,55013.5
2000-01-17,12153185.5,1640248.0,54827.3
2000-01-18,12424595.5,1663372.3,55884.0
2000-01-19,12008977.9,1620963.7,55390.1
2000-01-20,7956343.4,1096084.9,37472.4
2000-01-21,11668778.0,1561259.4,50539.7
2000-01-22,12065107.8,1594042.8,51448.4
2000-01-23,10604303.5,1414713.1,45986.1
2000-01-24,10067771.7,1344621.9,44370.1
2000-01-25,10333791.0,1388336.9,46133.8
2000-01-26,12057229.5,1555724.7,51477.8
2000-01-27,10295824.9,1365962.8,46171.3
2000-01-28,9917035.5,1332679.4,44784.5
2000-01-29,11657224.1,1527752.1,49881.1
2000-01-30,7640425.7,1041000.5,34753.8
2000-01-31,9699415.2,1291132.2,42059.0
2000-02-01,10362409.4,1428155.2,43361.6
2000-02-02,11458803.3,1540156.4,45480.7
2000-02-03,11907130.5,1594837.8,49179.3
2000-02-04,6699686.5,969987.4,30514.5
2000-02-05,11624319.8,1566446.9,45957.2
2000-02-06,10984546.4,1488002.4,44257.2
2000-02-07,8888541.9,1255416.0,38091.5
2000-02-08,8662878.4,1210459.0,37323.6
2000-02-09,9252701.7,1313358.8,39760.1
2000-02-10,6155896.5,897585.0,27498.8
2000-02-11,9911051.1,1368453.3,40450.6
2000-02-12,8685205.6,1228206.6,36442.8
2000-02-13,9928023.2,1367225.7,40162.5
2000-02-14,11083607.9,1483909.9,43633.2
2000-02-15,10874291.5,1435242.3,43140.9
2000-02-16,5232823.8,745433.9,23711.4
2000-02-17,4783635.0,677155.0,21160.2
2000-02-18,7760479.5,1139232.0,34998.9
2000-02-19,4260522.8,676065.8,21627.8
2000-02-20,10232917.3,1402493.8,43634.5
2000-02-21,10456149.3,1407103.0,44591.0
2000-02-22,10079411.8,1375068.5,43604.5
2000-02-23,7740933.5,1084457.5,33396.9
2000-02-24,6586523.1,947434.2,29974.3
2000-02-25,9949505.4,1330608.8,40604.5
2000-02-26,7449210.3,1062171.1,33239.8
2000-02-27,2598273.5,408374.3,12754.7
2000-02-28,8843700.0,1204213.8,36314.3
2000-02-29,9786600.4,1313156.7,40187.3
2000-03-01,10563877.2,1335525.6,31292.0
2000-03-02,9589214.0,1234590.0,29115.0
2000-03-03,10620071.0,1399431.5,35210.8
2000-03-04,9664282.6,1306032.9,32285.6
2000-03-05,8292677.5,1141598.3,28819.1
2000-03-06,10030611.1,1288905.1,31678.7
2000-03-07,9188057.7,1190652.8,29378.0
2000-03-08,9186735.7,1202873.4,30043.7
2000-03-09,8539226.5,1108370.8,27701.1
2000-03-10,6239600.8,821150.3,20245.3
2000-03-11,9005936.1,1172353.2,29124.8
2000-03-12,7393919.2,987484.3,24532.2
2000-03-13,6861125.7,933069.4,22474.8
2000-03-14,8397423.1,1100163.0,26900.7
2000-03-15,3654982.0,513362.1,12746.2
2000-03-16,5573968.2,745102.8,17829.4
2000-03-17,8736909.2,1116547.6,26594.6
2000-03-18,8784114.8,1113140.1,27047.6
2000-03-19,5703723.6,791670.0,18534.3
2000-03-20,6601494.2,863823.0,12495.1
2000-03-21,6443799.3,837880.6,11943.3
2000-03-22,5743153.7,764818.7,11253.9
2000-03-23,5637959.8,757446.7,11336.1
2000-03-24,6931180.7,888675.0,13192.5
2000-03-25,6048979.3,795537.1,11888.6
2000-03-26,5430986.5,711816.6,10265.8
2000-03-27,6287207.5,799119.7,10876.8
2000-03-28,5056250.6,699602.9,9966.9
2000-03-29,5549749.4,730175.2,10334.4
2000-03-30,2825814.7,414768.5,5424.5
2000-03-31,5764305.7,765600.0,7649.0
2000-04-01,6867656.6,866281.7,17375.9
2000-04-02,6233860.1,773050.3,15650.0
2000-04-03,6351985.3,787444.7,15943.1
2000-04-04,2487226.2,344183.6,6658.5
2000-04-05,2115242.9,312248.7,5998.4
2000-04-06,6008755.7,768921.2,14619.5
2000-04-07,6251376.8,783689.1,15049.9
2000-04-08,4091824.2,550266.2,10596.8
2000-04-09,2291886.7,338918.3,6194.1
2000-04-10,6085730.5,752824.6,13318.0
2000-04-11,6010691.7,745279.3,13487.4
2000-04-12,5765256.5,711776.1,12867.4
2000-04-13,4770050.6,636172.2,11707.2
2000-04-14,5539739.3,688427.8,11924.5
2000-04-15,5675658.0,703344.9,11933.3
2000-04-16,5609093.8,689041.8,11757.5
2000-04-17,5575407.3,681403.3,11603.8
2000-04-18,5407633.0,662224.2,11096.2
2000-04-19,4227856.0,542849.8,8823.9
2000-04-20,5211861.6,640483.7,10431.2
2000-04-21,4207005.4,553709.3,8869.9
2000-04-22,2820858.4,391873.2,6644.8
2000-04-23,4228147.1,545148.2,9043.8
2000-04-24,4699207.3,578813.0,9531.2
2000-04-25,4744145.9,585795.2,8870.9
2000-04-26,4227360.1,527622.5,7916.7
2000-04-27,4268857.3,530690.4,7826.0
2000-04-28,2301721.7,317910.9,4888.1
2000-04-29,1960528.9,281072.6,4057.1
2000-04-30,2783126.9,366820.2,5134.1
2000-05-01,4141461.4,503362.7,8187.4
2000-05-02,2539301.1,368325.3,6234.6
2000-05-03,2542469.0,369381.5,5944.8
2000-05-04,4024244.9,491203.7,7716.5
2000-05-05,2949994.5,403491.0,6892.9
2000-05-06,1461684.1,223398.9,3930.3
2000-05-07,3644365.9,460066.1,7522.4
2000-05-08,3556102.9,456920.9,7496.4
2000-05-09,3504568.0,435935.1,6940.0
2000-05-10,3550759.5,441000.4,6956.6
2000-05-11,2721859.6,358425.0,5663.0
2000-05-12,3404627.9,426269.3,6520.0
2000-05-13,1394809.6,209606.8,3312.6
2000-05-14,2381153.0,327799.8,4996.8
2000-05-15,1515630.7,217876.6,3310.3
2000-05-16,2695945.4,348601.8,4944.2
2000-05-17,1722377.6,243162.8,3479.4
2000-05-18,2946052.5,362478.4,4904.9
2000-05-19,2313585.7,298476.7,4060.9
2000-05-20,3147268.7,381519.2,4901.0
2000-05-21,3114584.3,375930.9,4638.1
2000-05-22,3178083.3,369997.5,4528.9
2000-05-23,2999403.7,357611.8,4639.5
2000-05-24,2223843.8,285892.9,3851.4
2000-05-25,3020817.3,357636.7,4582.3
2000-05-26,2972989.5,353203.5,4485.3
2000-05-27,2562218.3,317343.1,4060.4
2000-05-28,2758493.5,332398.6,4097.3
2000-05-29,2072955.5,271584.7,3226.1
2000-05-30,1832637.4,244863.9,2965.0
2000-05-31,2484468.6,313657.6,3530.2
2000-06-01,2559447.1,328734.9,3400.8
2000-06-02,909184.0,137199.4,1450.5
2000-06-03,709028.9,108365.0,1244.8
2000-06-04,1488308.5,231532.0,2677.8
2000-06-05,2659726.4,328540.5,3195.8
2000-06-06,2653056.7,329056.5,3304.4
2000-06-07,2218371.5,287852.7,3134.5
2000-06-08,2039516.1,264528.2,2865.4
2000-06-09,1950415.3,256053.6,2629.8
2000-06-10,2585028.7,307989.8,3069.3
2000-06-11,1037070.7,157484.8,1627.0
2000-06-12,712508.8,105036.8,1039.2
2000-06-13,1122514.4,158849.7,1544.3
2000-06-14,1417536.4,188584.0,1654.6
2000-06-15,2282405.6,278011.6,2481.2
2000-06-16,2377925.2,283736.0,2460.2
2000-06-17,1992683.8,263604.4,2400.2
2000-06-18,1888037.5,219166.6,1795.1
2000-06-19,2413388.0,262965.1,2249.3
2000-06-20,2554146.0,276246.4,2406.5
2000-06-21,2609839.9,283890.7,2478.4
2000-06-22,1257772.4,171524.0,1647.1
2000-06-23,1481868.9,191797.9,1693.1
2000-06-24,1028357.8,147206.7,1477.2
2000-06-25,2076717.1,262406.0,2516.7
2000-06-26,2529750.8,290028.5,2590.2
2000-06-27,1185600.9,173123.1,1693.7
2000-06-28,2120396.9,269394.0,2484.8
2000-06-29,3026435.2,367353.5,2694.1
2000-06-30,3073051.6,366589.5,2663.3
2000-07-01,2255524.9,291914.6,2193.3
2000-07-02,2731820.5,334986.6,2271.9
2000-07-03,1468357.5,194842.5,1408.2
2000-07-04,1959639.7,257914.7,2059.2
2000-07-05,1358524.6,204013.0,1623.5
2000-07-06,1602874.7,223008.2,1760.7
2000-07-07,2021341.1,258490.8,1859.6
2000-07-08,2890860.9,346505.1,2644.1
2000-07-09,2272001.9,301432.4,2386.5
2000-07-10,2243315.5,291485.9,2308.9
2000-07-11,1443877.6,186174.4,1336.1
2000-07-12,3005718.0,379917.1,3008.7
2000-07-13,2756856.1,350978.2,2894.3
2000-07-14,1317594.4,205956.1,1617.0
2000-07-15,2632985.6,354564.2,3003.1
2000-07-16,2707769.1,348212.2,2999.4
2000-07-17,2492761.6,345025.1,2686.7
2000-07-18,1646249.3,248116.9,2015.4
2000-07-19,1546980.9,219886.3,1913.5
2000-07-20,1471159.4,213414.4,1875.7
2000-07-21,2298483.1,325532.0,2825.0
2000-07-22,2767942.9,376678.3,3315.6
2000-07-23,3227504.8,410314.7,3526.1
2000-07-24,1482515.6,215670.4,1830.8
2000-07-25,3414592.3,424655.4,3872.6
2000-07-26,1376597.4,203886.1,2125.4
2000-07-27,3638365.1,449668.8,4048.2
2000-07-28,3714583.0,456818.9,4342.5
2000-07-29,3221062.3,424064.8,4274.4
2000-07-30,1287237.8,180334.7,1858.2
2000-07-31,2762227.0,376043.0,3838.4
2000-08-01,3911623.6,471400.2,4443.4
2000-08-02,3631630.9,449023.8,4318.9
2000-08-03,4021947.8,481876.5,4744.5
2000-08-04,2520770.4,330401.2,3259.4
2000-08-05,2947383.2,372774.8,3947.5
2000-08-06,4000725.1,485026.0,4959.9
2000-08-07,4037639.4,488217.0,4758.1
2000-08-08,3659656.9,461627.1,4466.8
2000-08-09,4371090.9,517379.6,4863.9
2000-08-10,4312655.4,510998.9,4973.4
2000-08-11,4575115.0,541039.2,5589.5
2000-08-12,4212726.7,506830.9,5228.4
2000-08-13,4418621.1,524625.2,5527.9
2000-08-14,4637334.6,553510.8,6198.5
2000-08-15,4002903.7,502397.0,5643.8
2000-08-16,4923564.2,600152.9,6613.2
2000-08-17,4073918.4,554939.0,7080.1
2000-08-18,2727758.4,390589.3,5610.0
2000-08-19,3500695.2,489969.5,6669.4
2000-08-20,4325913.3,577262.7,7710.1
2000-08-21,1379411.2,211975.8,2878.1
2000-08-22,2686159.4,392366.8,5043.7
2000-08-23,5628171.4,688111.8,8973.5
2000-08-24,4340326.6,568934.5,7422.8
2000-08-25,4408488.0,572424.2,6924.1
2000-08-26,3993112.3,519747.6,6800.0
2000-08-27,4979777.1,649923.6,7890.1
2000-08-28,4807205.6,622966.2,8680.4
2000-08-29,5222207.1,660756.7,9701.8
2000-08-30,5717755.7,701223.7,10047.1
2000-08-31,4059629.4,531821.7,8210.6
2000-09-01,4267667.0,543803.9,6679.8
2000-09-02,5884605.0,719949.7,8817.3
2000-09-03,4705430.5,613703.2,7656.7
2000-09-04,5820399.3,721088.2,9364.6
2000-09-05,2428936.0,351242.0,4736.4
2000-09-06,5359307.2,682309.6,9012.7
2000-09-07,6444024.9,777912.8,9781.9
2000-09-08,4220329.1,582715.5,7894.9
2000-09-09,1375401.3,209705.0,3010.5
2000-09-10,1916166.0,291560.0,4443.7
2000-09-11,2088043.2,315863.7,4391.2
2000-09-12,5488231.5,726820.5,10593.2
2000-09-13,3937186.9,579206.5,8646.5
2000-09-14,4658253.4,645820.9,9469.3
2000-09-15,4172396.5,585588.0,8499.4
2000-09-16,7060756.8,902180.0,13002.2
2000-09-17,5554536.5,749036.0,11099.3
2000-09-18,7426751.5,935943.2,13442.1
2000-09-19,2470949.9,347487.5,4924.6
2000-09-20,2625290.6,399040.4,6610.6
2000-09-21,6332549.8,834535.3,12764.7
2000-09-22,4206788.2,591688.4,9736.7
2000-09-23,5730645.2,802341.7,12481.6
2000-09-24,7719386.5,985253.6,15200.7
2000-09-25,7403805.7,948773.1,15114.3
2000-09-26,8014233.1,1036717.7,17546.0
2000-09-27,5996057.5,836561.1,14555.4
2000-09-28,7478455.7,989214.1,16215.4
2000-09-29,7248953.7,970613.0,16030.4
2000-09-30,8099563.7,1054743.7,16934.8
2000-10-01,6521859.5,891110.1,17116.9
2000-10-02,3764512.2,554475.0,10901.3
2000-10-03,3017367.9,454713.4,8450.6
2000-10-04,7739924.6,1041087.2,20104.9
2000-10-05,8739825.6,1129228.3,21569.3
2000-10-06,5803376.0,796294.1,15540.5
2000-10-07,8767321.7,1136731.8,24398.2
2000-10-08,6978443.4,969971.2,20803.3
2000-10-09,7757187.4,1036512.3,20811.7
2000-10-10,7245604.2,964903.9,18971.9
2000-10-11,5297838.8,744975.9,14555.1
2000-10-12,8454444.3,1123355.3,22511.7
2000-10-13,7208611.9,971318.3,18824.7
2000-10-14,9109353.3,1210011.1,24903.9
2000-10-15,10055798.4,1286750.2,27312.8
2000-10-16,10099540.6,1308625.3,27752.1
2000-10-17,9091289.2,1216253.3,25998.0
2000-10-18,9484309.9,1254691.0,26787.2
2000-10-19,6255785.7,884372.9,20401.9
2000-10-20,9613270.3,1282565.3,28688.7
2000-10-21,7100689.7,978168.7,22024.0
2000-10-22,10987133.9,1437360.9,30357.0
2000-10-23,11149861.5,1448887.2,30412.9
2000-10-24,11201353.3,1462441.2,31268.7
2000-10-25,11345934.5,1482674.9,31805.4
2000-10-26,9955104.6,1338766.4,28308.4
2000-10-27,9816508.6,1310622.3,26929.9
2000-10-28,11512376.3,1488339.1,30939.1
2000-10-29,8175586.4,1111062.2,23416.6
2000-10-30,7680034.1,1094457.8,24120.7
2000-10-31,9602509.1,1294128.1,28164.6
2000-11-01,7150798.7,980421.1,20751.0
2000-11-02,10079251.3,1327930.8,28047.3
2000-11-03,6251713.9,865750.7,17747.5
2000-11-04,4366554.7,645121.6,14162.7
2000-11-05,2672877.7,386259.8,6940.9
2000-11-06,8829323.1,1197969.9,24721.9
2000-11-07,11140856.7,1471190.6,30719.2
2000-11-08,11043987.0,1463221.1,30618.1
2000-11-09,9681142.6,1309732.5,28476.9
2000-11-10,9420221.0,1290169.5,28491.0
2000-11-11,9088087.3,1256772.8,26507.2
2000-11-12,5419385.2,792584.2,17129.6
2000-11-13,5975152.7,875511.9,18667.5
2000-11-14,11714235.1,1550634.1,32896.6
2000-11-15,11303821.3,1497811.7,32600.1
2000-11-16,9737448.8,1317382.2,29016.5
2000-11-17,10081624.1,1365121.4,30891.5
2000-11-18,9642155.8,1299212.0,27792.1
2000-11-19,9543434.1,1293745.4,27226.7
2000-11-20,11638244.4,1550877.8,33832.4
2000-11-21,11591553.4,1547591.6,33004.4
2000-11-22,10942792.4,1474877.8,32526.8
2000-11-23,12078876.6,1602492.8,34223.0
2000-11-24,11845198.6,1587967.3,35035.5
2000-11-25,10713048.8,1477919.3,34550.9
2000-11-26,9259535.3,1280622.9,28024.6
2000-11-27,12396945.5,1649748.6,36287.4
2000-11-28,11852540.7,1609523.3,36523.4
2000-11-29,11274529.9,1526191.9,34392.9
2000-11-30,11545871.4,1564129.0,36538.1
2000-12-01,9811428.1,1366678.6,40606.9
2000-12-02,11833711.7,1580936.5,43700.2
2000-12-03,11817669.8,1584342.4,44140.5
2000-12-04,9899051.2,1354738.8,37495.8
2000-12-05,12402875.5,1667710.0,48853.4
2000-12-06,9372450.1,1325148.0,40240.7
2000-12-07,9080637.6,1246570.9,35525.5
2000-12-08,12264956.2,1627069.5,45562.2
2000-12-09,12002856.0,1608973.1,46179.2
2000-12-10,8627403.8,1175578.7,32822.5
2000-12-11,9154462.8,1238619.7,35782.9
2000-12-12,11200913.7,1504812.3,43264.9
2000-12-13,7598445.6,1085867.4,32119.9
2000-12-14,8785091.5,1229031.4,34170.2
2000-12-15,11994557.0,1611741.5,44558.1
2000-12-16,5119003.2,751107.3,22308.2
2000-12-17,8683674.2,1202318.1,37070.6
2000-12-18,12696916.1,1684621.7,47510.6
2000-12-19,12764027.3,1696846.5,48254.2
2000-12-20,10858608.2,1467976.1,41781.1
2000-12-21,11506692.7,1563030.6,44352.1
2000-12-22,9368394.6,1294383.5,34923.6
2000-12-23,9841133.2,1344169.8,37929.4
2000-12-24,10493801.8,1408524.7,38542.9
2000-12-25,10618505.0,1437365.5,39626.4
2000-12-26,9929480.9,1318717.6,35160.1
2000-12-27,12375124.5,1658094.3,45711.6
2000-12-28,8443940.6,1157462.9,31834.2
2000-12-29,10279108.8,1407144.3,40735.7
2000-12-30,12756723.0,1698779.8,48819.9
2000-12-31,12315333.6,1662279.8,48159.9
